Regional Weather Roundup
Issued by NWS Newport/Morehead, NC

Current Version | Previous Version | Graphics & Text | Print | Product List | Glossary Off
Versions: 1 2 3 4 5 6 7 8 9 10 11 12 13 14 15 16 17 18 19 20 21 22 23 24 25 26 27 28 29 30 31 32 33 34 35 36 37 38 39 40 41 42 43 44 45 46 47 48 49 50

000
ASUS42 KMHX 242312
RWRMHX
WEATHER ROUNDUP FOR EASTERN NORTH CAROLINA
NATIONAL WEATHER SERVICE NEWPORT/MOREHEAD CITY NC
700 PM EDT FRI APR 24 2015

NOTE: "FAIR" INDICATES FEW OR NO CLOUDS BELOW 12,000 FEET
WITH NO SIGNIFICANT WEATHER AND/OR OBSTRUCTIONS TO VISIBILITY

NCZ015>017-031-032-045>047-102-103-250000-
NORTH COAST

CITY           SKY/WX    TMP DP  RH WIND       PRES   REMARKS
EDENTON        PTCLDY    63  27  25 W10       29.95S
ELIZABETH CITY CLEAR     60  30  32 W7        29.95R
KITTY HAWK     CLEAR     51  39  63 E6        29.95R
MANTEO         CLEAR     52  39  61 SE7       29.97R

$$

NCZ045>047-081-094-103-104-250000-
CENTRAL COAST

CITY           SKY/WX    TMP DP  RH WIND       PRES   REMARKS
FRISCO         CLEAR     55  40  56 SE6       29.97S
SWANQUARTER      N/A     64 N/A N/A NW8       29.91S

$$

NCZ095-097-098-100-101-250000-
SOUTHERN COAST

CITY           SKY/WX    TMP DP  RH WIND       PRES   REMARKS
BEAUFORT       CLEAR     62  43  49 S9        29.97S
CEDAR ISLAND     N/A     64 N/A N/A W5        30.00S
JACKSONVILLE   CLEAR     65  28  24 NW7       29.97S
PINEY ISLAND   CLEAR    N/A N/A N/A W9        29.96S
WILMINGTON     PTCLDY    65  41  41 S8        29.97S


$$

NCZ011>013-027>030-043-044-078>080-089-090>093-098-250000-
COASTAL PLAIN

CITY           SKY/WX    TMP DP  RH WIND       PRES   REMARKS
AHOSKIE        PTCLDY    60  29  32 CALM      29.94F
CLINTON        MOCLDY    65  41  41 CALM      29.97S
ELIZABETHTOWN  PTCLDY    69  30  24 CALM      29.97S
GOLDSBORO      PTCLDY    65  31  27 W9        29.94S
GREENVILLE     PTCLDY    63  30  29 CALM      29.98S
HAVELOCK       CLEAR     65  28  24 NW10      29.98R
KENANSVILLE    PTCLDY    64  33  31 CALM      29.98S
KINSTON        NOT AVBL
NEW BERN       PTCLDY    64  28  25 NW7       29.98R
RICHLANDS      CLEAR     64  32  29 CALM      29.98S
ROCKY MOUNT    PTCLDY    65  29  25 W5        29.95F
WASHINGTON     PTCLDY    62  26  25 NW3       29.97S
WHITEVILLE     CLEAR     68  31  25 CALM      29.97F

$$

AMZ130-135-150-152-154-156-158-170-250-252-270-ANZ085-086-088-633-658-670-250000-
MARINE OBSERVATIONS

STATION/POSITION TIME  TEMP    WIND        PRES    WAVE   SWELL
                       AIR SEA DIR/SP/G            HT/PER HT/PER
                 (UTC) (F)     (DEG/KT/KT) (MB)    (FT/S) (FT/S)
CHESAPEAKE LIGHT 2300   53      80/  8/  9 1014.4
64 E VA BEACH    2250   53 63  360/ 12/ 14 1013.6    6/ 6   5/ 6
DUCK             2200   53 56  110/ 12/ 13 1013.0
2 E DUCK         2211      55                N/A     3/ 7   2/13
10 NE DUCK       NOT AVBL
OREGON INLET     2200   51 56   90/  6/  9 1014.1
HATTERAS CG      2200   57 65  120/  5/  7 1014.1
DIAMOND BUOY     2250   57 74  160/  2/  6 1015.0    5/ 8   5/ 8
CAPE LOOKOUT     2300   61     220/  5/  8 1014.8
BEAUFORT LAB     2200   62 65  190/ 10/ 11 1013.8
27 SE WRIGHTSVLE 2200   60 71  230/  8/ 10   N/A
5 SE WRIGHTSVLE  2208   63 66  210/ 16/ 19 1015.4
225 S CAPE HAT   2250   64 71  350/ 12/ 16 1015.9    7/ 8   7/ 8
41 SE CHARLESTON 2250   64 71  130/  6/  8 1016.4    4/ 7   3/ 7

$$


USA.gov is the U.S. government's official web portal to all federal, state and local government web resources and services.